(63) Ausonia
ephemeris date magn radius delta ra dec elong phase
Today5 Feb 202511.92.109 AU2.652 AU17h55m-28°01'47.2°20.0°
Opposition2 Aug 20259.32.136 AU1.123 AU20h57m-22°28'174.9°2.4°
(63) Ausonia - 2025-02-05
astro.vanbuitenen.nl


 
-1 year
-1 month
-1 day
Now
+1 day
+1 month
+1 year

The interactive orbit chart above shows the body's path through the solar system and its position at the given date. Green and blue lines are shown perpendicular to the ecliptic plane: Green if the path is above the ecliptic plane, blue if it is below. (Left-click and drag to rotate the view; Right-click and drag to move the view; Use scroll wheel to zoom in our out.)

The orbital elements of Ausonia are:

            e (Eccentricity)                : 0.1282032
            a (Semimajor axis)              : 2.3947216
            i (Inclination)                 : 5.77300
            Ω (Longitude of ascending node) : 337.69220
            ω (Argument of perihelion)      : 295.71495
            M (Mean anomaly)                : 311.63968
            Epoch                           : 2024 Oct 17

            L (Longitude of perihelion)     : 273.52122
            B (Latitude of perihelion)      : -5.19960
            P (Orbital period in years)     : 3.71            
        

The light curve chart below shows the estimated development of the minor planet's magnitude.


The all-sky chart below shows the path of the minor planet over the same period as the light curve. The current position is marked yellow.





The following chart shows the path of the minor planet in the next few days. The field of view is optimized for (~10x50) binoculars and finderscopes. A more printer-friendly version of the same chart can be found below.




Ephemerides:
Date       Time       RA (2000)    DEC (2000)    delta   radius  elong  phase   PA    magn
2025-02-05 00:00 UT   17 55 53.4   -28 01 23     2.652    2.109   47.2   20.0   266   11.9 
2025-02-05 12:04 UT   17 57 04.1   -28 01 53     2.647    2.109   47.4   20.1   266   11.9 
2025-02-06 00:00 UT   17 58 14.1   -28 02 21     2.643    2.109   47.7   20.2   266   11.9 
2025-02-07 00:00 UT   18 00 34.5   -28 03 12     2.634    2.108   48.2   20.4   266   11.9 
2025-02-08 00:00 UT   18 02 54.8   -28 03 55     2.625    2.107   48.6   20.6   266   11.9 
2025-02-09 00:00 UT   18 05 14.8   -28 04 31     2.616    2.107   49.1   20.7   265   11.9 
2025-02-10 00:00 UT   18 07 34.6   -28 04 60     2.607    2.106   49.6   20.9   265   11.9 
2025-02-11 00:00 UT   18 09 54.2   -28 05 21     2.597    2.106   50.1   21.1   265   11.9 
2025-02-12 00:00 UT   18 12 13.5   -28 05 35     2.588    2.105   50.6   21.3   265   11.9 
2025-02-13 00:00 UT   18 14 32.5   -28 05 41     2.579    2.105   51.1   21.4   265   11.8 
2025-02-14 00:00 UT   18 16 51.3   -28 05 41     2.570    2.104   51.6   21.6   265   11.8 
2025-02-15 00:00 UT   18 19 09.8   -28 05 34     2.560    2.104   52.1   21.8   264   11.8 
2025-02-16 00:00 UT   18 21 28.1   -28 05 19     2.551    2.103   52.6   21.9   264   11.8 
2025-02-17 00:00 UT   18 23 46.0   -28 04 57     2.542    2.103   53.1   22.1   264   11.8 
2025-02-18 00:00 UT   18 26 03.6   -28 04 29     2.532    2.102   53.6   22.2   264   11.8 
2025-02-19 00:00 UT   18 28 20.9   -28 03 53     2.523    2.102   54.1   22.4   264   11.8 
2025-02-20 00:00 UT   18 30 37.9   -28 03 11     2.513    2.101   54.6   22.6   264   11.8 
2025-02-21 00:00 UT   18 32 54.5   -28 02 22     2.503    2.101   55.1   22.7   263   11.8 


    Terminology:
            
    delta:  distance between minor planet and earth in AU
    radius: distance between minor planet and sun in AU
    magn:   magnitude (brightness) estimate    
    ra:     right ascension in hours (24h = 360deg)
    dec:    declination in degrees
    elong:  elongation in degrees (angle sun-earth-minor planet)    
    phase:  phase angle in degrees (angle sun-minor planet-earth)        
    AU:     Astronomical Unit (mean distance between earth and sun: 149597870.7 km
    

Orbital elements provided by the MPC (Minor Planet Center).
Calculations by a modified version of AAPlus, a C# implementation of the AA+ project by PJ Naughter from the algorithms presented in the book "Astronomical Algorithms" by Jean Meeus.
NGC2000 dso catalog and star labels from VizieR as provided by the Strasbourg astronomical Data Center.
Tycho2 catalog from the ESO archive.